sat.trackr.live / text

‹ back to catalog

HAWK-10B

NORAD 60545 · 2024-149CF

PAYLOAD ACTIVE UNKNOWN

§ Identity

Operator
Country
US
Launch date
2024-08-16
Launch site
AFWTR
Launch vehicle
Mass (kg)
RCS (m²)

External: N2YO · Heavens-Above · Gunter

§ Orbital elements

Epoch: 2026-05-25T04:01:39.522720Z

Period
96.23 min
Inclination
97.6820°
Eccentricity
0.0005963
Mean motion
14.96432739 rev/d
Perigee alt
573.8 km
Apogee alt
582.1 km
Semi-major
6,956.1 km
B*
1.5923e-4
RAAN
220.8538°
Arg perigee
153.2526°
Mean anomaly
206.9004°
Rev number
9,654

§ Raw data

HAWK-10B1 60545U 24149CF  26145.16781855  .00001749  00000+0  15923-3 0  99922 60545  97.6820 220.8538 0005963 153.2526 206.9004 14.96432739 96542

JSON: /api/v1/satellites/60545 · /tle

For live sub-satellite position, see the globe view (requires WebGL).

§ Visibility from observer

Set your observer location to see the next 7 days of passes ≥ 10°. The values pass through the URL so the page stays shareable.

No JS? Fill the form by hand. The geolocation button needs JavaScript.